| time (UTC) | temp F | wind direction | speed MPH | gust MPH | rain 1hr in | rain 24hr in | rain mn in | humidity % | barometer mb |
| 20260503224034 | 62 | 243 | 2.0 | 5.0 | 0.00 | 0.00 | 0.00 | 32 | 1014.6 |
| 20260503223532 | 63 | 277 | 1.0 | 4.0 | 0.00 | 0.00 | 0.00 | 31 | 1014.6 |
| 20260503223051 | 62 | 62 | 1.0 | 8.0 | 0.00 | 0.00 | 0.00 | 31 | 1014.6 |
| 20260503222531 | 62 | 333 | 1.0 | 8.0 | 0.00 | 0.00 | 0.00 | 30 | 1014.6 |
| 20260503222034 | 62 | 327 | 3.0 | 8.0 | 0.00 | 0.00 | 0.00 | 30 | 1014.7 |
| 20260503221552 | 63 | 301 | 2.0 | 8.0 | 0.00 | 0.00 | 0.00 | 30 | 1014.7 |
| 20260503221034 | 62 | 65 | 1.0 | 6.0 | 0.00 | 0.00 | 0.00 | 30 | 1014.6 |
| 20260503220534 | 62 | 227 | 2.0 | 6.0 | 0.00 | 0.00 | 0.00 | 30 | 1014.6 |
| 20260503220049 | 63 | 257 | 2.0 | 9.0 | 0.00 | 0.00 | 0.00 | 30 | 1014.6 |
| 20260503215534 | 63 | 255 | 3.0 | 9.0 | 0.00 | 0.00 | 0.00 | 30 | 1014.6 |
| 20260503215033 | 63 | 34 | 3.0 | 9.0 | 0.00 | 0.00 | 0.00 | 30 | 1014.5 |
| 20260503214539 | 63 | 286 | 2.0 | 9.0 | 0.00 | 0.00 | 0.00 | 30 | 1014.6 |
| 20260503214032 | 63 | 121 | 3.0 | 9.0 | 0.00 | 0.00 | 0.00 | 30 | 1014.5 |
| 20260503213532 | 63 | 186 | 2.0 | 9.0 | 0.00 | 0.00 | 0.00 | 30 | 1014.6 |
| 20260503213045 | 63 | 277 | 2.0 | 8.0 | 0.00 | 0.00 | 0.00 | 31 | 1014.6 |
| 20260503212533 | 63 | 273 | 2.0 | 9.0 | 0.00 | 0.00 | 0.00 | 29 | 1014.5 |
| 20260503212030 | 63 | 149 | 3.0 | 9.0 | 0.00 | 0.00 | 0.00 | 30 | 1014.6 |
| 20260503211544 | 62 | 292 | 2.0 | 11.0 | 0.00 | 0.00 | 0.00 | 30 | 1014.5 |
| 20260503211033 | 62 | 234 | 5.0 | 11.0 | 0.00 | 0.00 | 0.00 | 30 | 1014.5 |
| 20260503210531 | 62 | 351 | 5.0 | 11.0 | 0.00 | 0.00 | 0.00 | 30 | 1014.5 |
| 20260503210044 | 63 | 246 | 5.0 | 11.0 | 0.00 | 0.00 | 0.00 | 30 | 1014.5 |
| 20260503205533 | 63 | 277 | 2.0 | 11.0 | 0.00 | 0.00 | 0.00 | 30 | 1014.5 |
| 20260503205034 | 62 | 321 | 3.0 | 11.0 | 0.00 | 0.00 | 0.00 | 30 | 1014.5 |
| 20260503204547 | 63 | 317 | 3.0 | 9.0 | 0.00 | 0.00 | 0.00 | 29 | 1014.5 |
| 20260503204032 | 64 | 200 | 2.0 | 10.0 | 0.00 | 0.00 | 0.00 | 28 | 1014.3 |
| 20260503203536 | 63 | 331 | 3.0 | 11.0 | 0.00 | 0.00 | 0.00 | 29 | 1014.5 |
| 20260503203047 | 63 | 341 | 6.0 | 14.0 | 0.00 | 0.00 | 0.00 | 29 | 1014.5 |
| 20260503202534 | 63 | 346 | 3.0 | 14.0 | 0.00 | 0.00 | 0.00 | 29 | 1014.5 |
| 20260503202037 | 63 | 323 | 5.0 | 14.0 | 0.00 | 0.00 | 0.00 | 29 | 1014.5 |
| 20260503201541 | 64 | 132 | 4.0 | 11.0 | 0.00 | 0.00 | 0.00 | 28 | 1014.6 |
| 20260503201033 | 63 | 49 | 4.0 | 12.0 | 0.00 | 0.00 | 0.00 | 29 | 1014.6 |
| 20260503200533 | 63 | 53 | 5.0 | 12.0 | 0.00 | 0.00 | 0.00 | 29 | 1014.6 |
| 20260503200047 | 63 | 300 | 3.0 | 12.0 | 0.00 | 0.00 | 0.00 | 29 | 1014.8 |
| 20260503195533 | 63 | 319 | 3.0 | 12.0 | 0.00 | 0.00 | 0.00 | 28 | 1014.9 |
| 20260503195031 | 63 | 221 | 6.0 | 12.0 | 0.00 | 0.00 | 0.00 | 29 | 1014.9 |
| 20260503194544 | 63 | 314 | 6.0 | 12.0 | 0.00 | 0.00 | 0.00 | 29 | 1015.0 |
| 20260503194033 | 63 | 306 | 3.0 | 12.0 | 0.00 | 0.00 | 0.00 | 29 | 1015.1 |
| 20260503193531 | 63 | 327 | 6.0 | 12.0 | 0.00 | 0.00 | 0.00 | 29 | 1015.0 |
| 20260503193049 | 63 | 312 | 3.0 | 14.0 | 0.00 | 0.00 | 0.00 | 29 | 1015.0 |
| 20260503192532 | 63 | 213 | 6.0 | 14.0 | 0.00 | 0.00 | 0.00 | 30 | 1015.2 |
| 20260503192029 | 63 | 300 | 5.0 | 14.0 | 0.00 | 0.00 | 0.00 | 31 | 1015.2 |
| 20260503191541 | 62 | 170 | 4.0 | 12.0 | 0.00 | 0.00 | 0.00 | 31 | 1015.3 |
| 20260503191033 | 62 | 275 | 6.0 | 11.0 | 0.00 | 0.00 | 0.00 | 29 | 1015.3 |
| 20260503190531 | 63 | 229 | 4.0 | 11.0 | 0.00 | 0.00 | 0.00 | 29 | 1015.5 |
| 20260503190043 | 63 | 317 | 3.0 | 14.0 | 0.00 | 0.00 | 0.00 | 30 | 1015.4 |
| 20260503185531 | 62 | 286 | 6.0 | 14.0 | 0.00 | 0.00 | 0.00 | 30 | 1015.5 |
| 20260503185031 | 63 | 319 | 5.0 | 15.0 | 0.00 | 0.00 | 0.00 | 29 | 1015.5 |
| 20260503184555 | 64 | 305 | 5.0 | 15.0 | 0.00 | 0.00 | 0.00 | 30 | 1015.6 |
| 20260503184030 | 62 | 288 | 5.0 | 14.0 | 0.00 | 0.00 | 0.00 | 31 | 1015.6 |
| 20260503183532 | 62 | 333 | 3.0 | 13.0 | 0.00 | 0.00 | 0.00 | 31 | 1015.5 |
| 20260503183041 | 62 | 248 | 3.0 | 13.0 | 0.00 | 0.00 | 0.00 | 31 | 1015.6 |
| 20260503182541 | 61 | 325 | 5.0 | 13.0 | 0.00 | 0.00 | 0.00 | 32 | 1015.6 |
| 20260503182035 | 62 | 235 | 4.0 | 13.0 | 0.00 | 0.00 | 0.00 | 32 | 1015.6 |
| 20260503181543 | 62 | 341 | 5.0 | 13.0 | 0.00 | 0.00 | 0.00 | 32 | 1015.7 |
| 20260503181031 | 61 | 332 | 4.0 | 13.0 | 0.00 | 0.00 | 0.00 | 34 | 1015.6 |
| 20260503180530 | 61 | 329 | 4.0 | 12.0 | 0.00 | 0.00 | 0.00 | 32 | 1015.7 |
| 20260503180043 | 62 | 313 | 4.0 | 12.0 | 0.00 | 0.00 | 0.00 | 33 | 1015.7 |
| 20260503175530 | 62 | 85 | 3.0 | 12.0 | 0.00 | 0.00 | 0.00 | 32 | 1015.7 |
| 20260503175030 | 61 | 309 | 4.0 | 13.0 | 0.00 | 0.00 | 0.00 | 33 | 1015.7 |
| 20260503174600 | 61 | 307 | 5.0 | 14.0 | 0.00 | 0.00 | 0.00 | 33 | 1015.8 |
| 20260503174031 | 60 | 314 | 6.0 | 14.0 | 0.00 | 0.00 | 0.00 | 34 | 1015.9 |
| 20260503173533 | 61 | 352 | 4.0 | 13.0 | 0.00 | 0.00 | 0.00 | 34 | 1016.0 |
| 20260503173049 | 60 | 335 | 6.0 | 16.0 | 0.00 | 0.00 | 0.00 | 34 | 1015.8 |
| 20260503172533 | 60 | 101 | 8.0 | 16.0 | 0.00 | 0.00 | 0.00 | 35 | 1016.0 |
| 20260503172032 | 60 | 292 | 8.0 | 16.0 | 0.00 | 0.00 | 0.00 | 35 | 1015.9 |
| 20260503171545 | 60 | 138 | 3.0 | 14.0 | 0.00 | 0.00 | 0.00 | 34 | 1016.0 |
| 20260503171029 | 59 | 217 | 8.0 | 16.0 | 0.00 | 0.00 | 0.00 | 34 | 1016.0 |
| 20260503170534 | 60 | 326 | 7.0 | 16.0 | 0.00 | 0.00 | 0.00 | 34 | 1016.1 |
| 20260503150532 | 57 | 281 | 3.0 | 12.0 | 0.00 | 0.00 | 0.00 | 38 | 1016.5 |
| 20260503131034 | 54 | 318 | 8.0 | 18.0 | 0.00 | 0.00 | 0.00 | 43 | 1016.1 |
| 20260503130532 | 54 | 271 | 6.0 | 12.0 | 0.00 | 0.00 | 0.00 | 44 | 1016.1 |
| 20260503110535 | 52 | 296 | 6.0 | 16.0 | 0.00 | 0.00 | 0.00 | 46 | 1014.8 |
| 20260503081550 | 54 | 60 | 2.0 | 11.0 | 0.00 | 0.00 | 0.00 | 58 | 1012.2 |
| 20260503081031 | 54 | 303 | 5.0 | 11.0 | 0.00 | 0.00 | 0.00 | 58 | 1012.1 |
| 20260503080531 | 54 | 248 | 4.0 | 14.0 | 0.00 | 0.00 | 0.00 | 57 | 1012.0 |
| 20260503072533 | 56 | 225 | 4.0 | 12.0 | 0.00 | 0.00 | 0.00 | 55 | 1011.7 |
| 20260503072035 | 55 | 331 | 5.0 | 12.0 | 0.00 | 0.00 | 0.00 | 56 | 1011.6 |
| 20260503071547 | 55 | 332 | 5.0 | 12.0 | 0.00 | 0.00 | 0.00 | 56 | 1011.5 |
| 20260503071034 | 56 | 220 | 4.0 | 12.0 | 0.00 | 0.00 | 0.00 | 55 | 1011.4 |
| 20260503070533 | 56 | 28 | 3.0 | 11.0 | 0.00 | 0.00 | 0.00 | 54 | 1011.5 |
| 20260503055033 | 55 | 323 | 3.0 | 8.0 | 0.00 | 0.00 | 0.00 | 58 | 1010.9 |
| 20260503054546 | 55 | 348 | 1.0 | 8.0 | 0.00 | 0.00 | 0.00 | 57 | 1011.0 |
| 20260503054034 | 55 | 348 | 3.0 | 6.0 | 0.00 | 0.00 | 0.00 | 57 | 1011.0 |
| 20260503053533 | 55 | 344 | 2.0 | 6.0 | 0.00 | 0.00 | 0.00 | 56 | 1011.1 |
| 20260503053044 | 55 | 325 | 1.0 | 5.0 | 0.00 | 0.00 | 0.00 | 56 | 1011.1 |
| 20260503052533 | 55 | 333 | 1.0 | 6.0 | 0.00 | 0.00 | 0.00 | 56 | 1011.1 |
| 20260503052033 | 55 | 324 | 2.0 | 6.0 | 0.00 | 0.00 | 0.00 | 55 | 1011.1 |
| 20260503051543 | 55 | 84 | 2.0 | 8.0 | 0.00 | 0.00 | 0.00 | 55 | 1011.2 |
| 20260503051033 | 55 | 299 | 2.0 | 8.0 | 0.00 | 0.00 | 0.00 | 55 | 1011.1 |
| 20260503050531 | 55 | 9 | 2.0 | 8.0 | 0.00 | 0.00 | 0.00 | 55 | 1011.0 |
| 20260503050044 | 55 | 352 | 1.0 | 8.0 | 0.00 | 0.00 | 0.00 | 55 | 1011.1 |
| 20260503045533 | 55 | 340 | 2.0 | 8.0 | 0.00 | 0.00 | 0.00 | 54 | 1011.1 |
| 20260503045034 | 56 | 310 | 2.0 | 5.0 | 0.00 | 0.00 | 0.00 | 54 | 1011.2 |
| 20260503044547 | 56 | 269 | 1.0 | 6.0 | 0.00 | 0.00 | 0.00 | 54 | 1011.1 |
| 20260503044030 | 56 | 295 | 2.0 | 6.0 | 0.00 | 0.00 | 0.00 | 55 | 1011.2 |
| 20260503043533 | 56 | 344 | 2.0 | 6.0 | 0.00 | 0.00 | 0.00 | 55 | 1011.2 |
| 20260503043046 | 56 | 304 | 1.0 | 5.0 | 0.00 | 0.00 | 0.00 | 53 | 1011.3 |
| 20260503042531 | 58 | 313 | 1.0 | 6.0 | 0.00 | 0.00 | 0.00 | 52 | 1011.2 |
| 20260503042031 | 57 | 290 | 2.0 | 12.0 | 0.00 | 0.00 | 0.00 | 53 | 1011.2 |
| 20260503041540 | 56 | 310 | 2.0 | 12.0 | 0.00 | 0.00 | 0.00 | 53 | 1011.3 |
| 20260503041029 | 57 | 269 | 3.0 | 12.0 | 0.00 | 0.00 | 0.00 | 52 | 1011.3 |
| 20260503040531 | 57 | 295 | 3.0 | 8.0 | 0.00 | 0.00 | 0.00 | 50 | 1011.2 |
| 20260503040047 | 57 | 285 | 2.0 | 8.0 | 0.00 | 0.00 | 0.00 | 51 | 1011.1 |
| 20260503035531 | 57 | 352 | 3.0 | 8.0 | 0.00 | 0.00 | 0.00 | 52 | 1011.2 |
| 20260503035031 | 57 | 324 | 3.0 | 10.0 | 0.00 | 0.00 | 0.00 | 52 | 1011.2 |
| 20260503034558 | 57 | 289 | 4.0 | 10.0 | 0.00 | 0.00 | 0.00 | 52 | 1011.3 |
| 20260503034032 | 58 | 331 | 3.0 | 8.0 | 0.00 | 0.00 | 0.00 | 51 | 1011.3 |
| 20260503033533 | 58 | 352 | 2.0 | 8.0 | 0.00 | 0.00 | 0.00 | 52 | 1011.3 |
| 20260503033051 | 57 | 251 | 3.0 | 8.0 | 0.00 | 0.00 | 0.00 | 53 | 1011.2 |
| 20260503032531 | 57 | 277 | 1.0 | 6.0 | 0.00 | 0.00 | 0.00 | 53 | 1011.0 |
| 20260503032033 | 58 | 344 | 2.0 | 7.0 | 0.00 | 0.00 | 0.00 | 53 | 1011.0 |
| 20260503031538 | 57 | 28 | 2.0 | 7.0 | 0.00 | 0.00 | 0.00 | 55 | 1010.9 |
| 20260503031032 | 56 | 298 | 2.0 | 7.0 | 0.00 | 0.00 | 0.00 | 55 | 1010.9 |
| 20260503030530 | 56 | 0 | 1.0 | 5.0 | 0.00 | 0.00 | 0.00 | 55 | 1011.0 |
| 20260503030047 | 56 | 153 | 2.0 | 5.0 | 0.00 | 0.00 | 0.00 | 56 | 1010.9 |
| 20260503025531 | 56 | 240 | 2.0 | 7.0 | 0.00 | 0.00 | 0.00 | 56 | 1011.1 |
| 20260503025031 | 57 | 291 | 2.0 | 8.0 | 0.00 | 0.00 | 0.00 | 55 | 1011.1 |
| 20260503024550 | 57 | 101 | 3.0 | 8.0 | 0.00 | 0.00 | 0.00 | 55 | 1011.2 |
| 20260503024030 | 57 | 308 | 2.0 | 5.0 | 0.00 | 0.00 | 0.00 | 55 | 1011.3 |
| 20260503023530 | 57 | 242 | 1.0 | 6.0 | 0.00 | 0.00 | 0.00 | 55 | 1011.3 |
| 20260503023044 | 56 | 298 | 2.0 | 8.0 | 0.00 | 0.00 | 0.00 | 55 | 1011.4 |
| 20260503022534 | 57 | 295 | 2.0 | 8.0 | 0.00 | 0.00 | 0.00 | 54 | 1011.3 |
| 20260503022031 | 56 | 345 | 1.0 | 8.0 | 0.00 | 0.00 | 0.00 | 55 | 1011.2 |
| 20260503021543 | 56 | 261 | 3.0 | 6.0 | 0.00 | 0.00 | 0.00 | 54 | 1011.2 |
| 20260503021031 | 57 | 296 | 2.0 | 4.0 | 0.00 | 0.00 | 0.00 | 54 | 1011.1 |
| 20260503020531 | 57 | 9 | 1.0 | 6.0 | 0.00 | 0.00 | 0.00 | 53 | 1011.2 |
| 20260503020042 | 57 | 248 | 2.0 | 6.0 | 0.00 | 0.00 | 0.00 | 53 | 1011.2 |
| 20260503015533 | 57 | 33 | 3.0 | 6.0 | 0.00 | 0.00 | 0.00 | 53 | 1011.2 |
| 20260503015031 | 57 | 352 | 1.0 | 6.0 | 0.00 | 0.00 | 0.00 | 52 | 1011.2 |
| 20260503014546 | 57 | 290 | 1.0 | 9.0 | 0.00 | 0.00 | 0.00 | 52 | 1011.1 |
| 20260503014030 | 57 | 286 | 1.0 | 9.0 | 0.00 | 0.00 | 0.00 | 52 | 1011.1 |
| 20260503013532 | 56 | 336 | 3.0 | 6.0 | 0.00 | 0.00 | 0.00 | 52 | 1011.1 |
| 20260503013040 | 57 | 348 | 1.0 | 8.0 | 0.00 | 0.00 | 0.00 | 52 | 1011.0 |
| 20260503012533 | 57 | 323 | 2.0 | 8.0 | 0.00 | 0.00 | 0.00 | 51 | 1011.0 |
| 20260503012033 | 57 | 360 | 3.0 | 6.0 | 0.00 | 0.00 | 0.00 | 50 | 1010.9 |
| 20260503011540 | 57 | 308 | 1.0 | 5.0 | 0.00 | 0.00 | 0.00 | 50 | 1010.8 |
| 20260503011033 | 58 | 23 | 2.0 | 9.0 | 0.00 | 0.00 | 0.00 | 48 | 1010.6 |
| 20260503010531 | 58 | 9 | 1.0 | 9.0 | 0.00 | 0.00 | 0.00 | 49 | 1010.6 |
| 20260503010043 | 57 | 5 | 2.0 | 9.0 | 0.00 | 0.00 | 0.00 | 49 | 1010.8 |
| 20260503005533 | 57 | 22 | 2.0 | 6.0 | 0.00 | 0.00 | 0.00 | 50 | 1010.9 |
| 20260503005031 | 57 | 320 | 1.0 | 5.0 | 0.00 | 0.00 | 0.00 | 49 | 1010.7 |
| 20260503004607 | 58 | 24 | 3.0 | 6.0 | 0.00 | 0.00 | 0.00 | 48 | 1010.7 |
| 20260503004036 | 58 | 41 | 1.0 | 8.0 | 0.00 | 0.00 | 0.00 | 47 | 1010.6 |
| 20260503003533 | 58 | 112 | 3.0 | 9.0 | 0.00 | 0.00 | 0.00 | 47 | 1010.4 |
| 20260503003052 | 57 | 260 | 3.0 | 9.0 | 0.00 | 0.00 | 0.00 | 47 | 1010.4 |
| 20260503002533 | 58 | 351 | 3.0 | 7.0 | 0.00 | 0.00 | 0.00 | 45 | 1010.4 |
| 20260503002034 | 57 | 325 | 2.0 | 10.0 | 0.00 | 0.00 | 0.00 | 46 | 1010.4 |
| 20260503001559 | 57 | 84 | 3.0 | 11.0 | 0.00 | 0.00 | 0.00 | 46 | 1010.3 |
| 20260503001034 | 57 | 195 | 3.0 | 11.0 | 0.00 | 0.00 | 0.00 | 46 | 1010.2 |
| 20260503000531 | 57 | 331 | 3.0 | 11.0 | 0.00 | 0.00 | 0.00 | 46 | 1010.2 |
| 20260503000047 | 57 | 9 | 2.0 | 11.0 | 0.00 | 0.00 | 0.00 | 46 | 1010.1 |
| 20260502235534 | 57 | 43 | 3.0 | 14.0 | 0.00 | 0.00 | 0.00 | 47 | 1010.0 |
| 20260502235032 | 57 | 81 | 5.0 | 14.0 | 0.00 | 0.00 | 0.00 | 49 | 1010.1 |
| 20260502234549 | 57 | 329 | 3.0 | 11.0 | 0.00 | 0.00 | 0.00 | 48 | 1010.0 |
| 20260502234033 | 57 | 311 | 5.0 | 11.0 | 0.00 | 0.00 | 0.00 | 47 | 1010.0 |
| 20260502233533 | 57 | 326 | 2.0 | 13.0 | 0.00 | 0.00 | 0.00 | 45 | 1010.1 |
| 20260502233043 | 57 | 67 | 4.0 | 13.0 | 0.00 | 0.00 | 0.00 | 43 | 1009.9 |
| 20260502232533 | 57 | 30 | 5.0 | 14.0 | 0.00 | 0.00 | 0.00 | 42 | 1009.9 |
| 20260502232034 | 57 | 27 | 2.0 | 14.0 | 0.00 | 0.00 | 0.00 | 40 | 1009.8 |
| 20260502231548 | 57 | 51 | 6.0 | 13.0 | 0.00 | 0.00 | 0.00 | 38 | 1009.7 |
| 20260502231031 | 57 | 107 | 4.0 | 13.0 | 0.00 | 0.00 | 0.00 | 40 | 1009.9 |
| 20260502230532 | 57 | 11 | 5.0 | 12.0 | 0.00 | 0.00 | 0.00 | 40 | 1009.9 |
| 20260502230042 | 58 | 19 | 3.0 | 11.0 | 0.00 | 0.00 | 0.00 | 40 | 1009.9 |
| 20260502225531 | 57 | 15 | 4.0 | 11.0 | 0.00 | 0.00 | 0.00 | 41 | 1009.7 |
| 20260502225033 | 57 | 350 | 4.0 | 10.0 | 0.00 | 0.00 | 0.00 | 43 | 1009.9 |
| 20260502224540 | 57 | 17 | 3.0 | 12.0 | 0.00 | 0.00 | 0.00 | 43 | 1009.9 |